Coningsby, United Kingdom

8:56 AM BST on August 25, 2016 (GMT +0100)
Coningsby Air Base

Weather History for EGXC - July, 2013

Change the Weather History Date:

Thursday, July 4, 2013

  Actual Average Record
Temperature  
Mean Temperature 64 °F -  
Max Temperature 76 °F - - ()
Min Temperature 51 °F - - ()
Degree Days  
Heating Degree Days 2    
Growing Degree Days 14 (Base 50)    
Moisture  
Dew Point 54 °F    
Average Humidity 72    
Maximum Humidity 94    
Minimum Humidity 37    
Precipitation  
Precipitation 0.00 in - - ()
Sea Level Pressure  
Sea Level Pressure 30.03 in    
Wind  
Wind Speed 9 mph ()    
Max Wind Speed 18 mph    
Max Gust Speed -    
Visibility 8.2 miles    
Events      
T = Trace of Precipitation, MM = Missing Value Source: Averaged Metar Reports

Daily Weather History Graph

Daily Weather History Graph

Search for Another Location

Airport or City:

Trip Planner

Search our weather history database for the weather conditions in past years. The results will help you decide how hot, cold, wet, or windy it might be!

Date:

Astronomy

Jul. 04, 2013 Rise Set
Actual Time 4:41 AM BST 9:28 PM BST
Civil Twilight 3:50 AM BST 10:19 PM BST
Nautical Twilight 2:26 AM BST 11:42 PM BST
Astronomical Twilight Sun does not set Sun does not set
Moon 2:02 AM BST (7/4) 6:08 PM BST (7/4)
Length of Visible Light 18h 28m
Length of Day
16h 47m
Waning Crescent, 13% of the Moon is Illuminated
Jul 4
Waning Crescent
Jul 8
New
Jul 16
First Quarter
Jul 22
Full
Jul 29
Last Quarter

Hourly Weather History & Observations

Time (BST) Temp. Dew Point Humidity Pressure Visibility Wind Dir Wind Speed Gust Speed Precip Events Conditions
12:50 AM 55 °F 52 °F 86% 29.98 in 12 mi SSW 5.8 mph - -   Scattered Clouds
12:50 AM 55.4 °F 51.8 °F 88% 29.98 in 6.2 mi SSW 5.8 mph - N/A   Partly Cloudy
1:50 AM 53.6 °F 51.8 °F 94% 29.95 in 6.2 mi South 5.8 mph - N/A   Partly Cloudy
2:50 AM 51.8 °F 50.0 °F 94% 29.95 in - SSW 6.9 mph - N/A   Clear
3:50 AM 52 °F 51 °F 93% 29.97 in 16 mi SSW 6.9 mph - -   Clear
3:50 AM 51.8 °F 50.0 °F 94% 29.95 in - SSW 6.9 mph - N/A   Clear
4:50 AM 51.8 °F 50.0 °F 94% 29.95 in 6.2 mi South 6.9 mph - N/A   Partly Cloudy
5:50 AM 53.6 °F 51.8 °F 94% 29.98 in 6.2 mi SSW 9.2 mph - N/A   Mostly Cloudy
6:50 AM 55 °F 53 °F 90% 29.96 in 9 mi South 9.2 mph - -   Mostly Cloudy
6:50 AM 55.4 °F 53.6 °F 94% 29.95 in 6.2 mi South 9.2 mph - N/A   Scattered Clouds
7:50 AM 57.2 °F 53.6 °F 88% 29.95 in 6.2 mi SSW 12.7 mph - N/A   Mostly Cloudy
8:50 AM 59.0 °F 55.4 °F 88% 29.98 in 6.2 mi SSW 15.0 mph - N/A   Mostly Cloudy
9:03 AM 60.8 °F 57.2 °F 88% 29.98 in 6.2 mi South 13.8 mph - N/A   Mostly Cloudy
9:50 AM 65 °F 57 °F 69% 30.00 in 19 mi WSW 13.8 mph - -   Mostly Cloudy
9:50 AM 64.4 °F 57.2 °F 77% 29.98 in 6.2 mi WSW 13.8 mph - N/A   Mostly Cloudy
10:50 AM 68.0 °F 57.2 °F 68% 29.98 in 6.2 mi WSW 18.4 mph - N/A   Scattered Clouds
11:50 AM 69.8 °F 57.2 °F 64% 30.01 in 6.2 mi SW 17.3 mph - N/A   Scattered Clouds
12:50 PM 71 °F 58 °F 54% 30.01 in 25 mi WSW 17.3 mph - -   Mostly Cloudy
12:50 PM 71.6 °F 57.2 °F 60% 30.01 in 6.2 mi WSW 17.3 mph - N/A   Mostly Cloudy
1:50 PM 71.6 °F 59.0 °F 64% 30.01 in 6.2 mi WSW 15.0 mph - N/A   Mostly Cloudy
2:50 PM 73.4 °F 59.0 °F 61% 30.04 in 6.2 mi WSW 16.1 mph - N/A   Partly Cloudy
3:50 PM 76 °F 54 °F 37% 30.04 in 28 mi WSW 17.3 mph - -   Scattered Clouds
3:50 PM 75.2 °F 55.4 °F 50% 30.04 in 6.2 mi WSW 17.3 mph - N/A   Partly Cloudy
4:50 PM 73.4 °F 55.4 °F 53% 30.04 in 6.2 mi WSW 13.8 mph - N/A   Partly Cloudy
5:50 PM 75.2 °F 51.8 °F 44% 30.06 in 6.2 mi WSW 15.0 mph - N/A   Partly Cloudy
6:50 PM 74 °F 54 °F 39% 30.10 in 25 mi West 16.1 mph - -   Scattered Clouds
6:50 PM 73.4 °F 53.6 °F 50% 30.09 in - West 16.1 mph - N/A   Clear
7:50 PM 69.8 °F 55.4 °F 60% 30.12 in - WNW 12.7 mph - N/A   Clear
8:50 PM 66.2 °F 53.6 °F 64% 30.15 in - WNW 10.4 mph - N/A   Clear
9:50 PM 63 °F 52 °F 59% 30.19 in 19 mi WNW 5.8 mph - -   Clear
9:50 PM 62.6 °F 51.8 °F 68% 30.18 in - WNW 5.8 mph - N/A   Clear
10:50 PM 60.8 °F 51.8 °F 72% 30.21 in - NNW 5.8 mph - N/A   Clear
11:50 PM 59.0 °F 50.0 °F 72% 30.24 in - NW 5.8 mph - N/A   Clear